#timestamp,LO_Frequency,Hit,StdDev 
1680868815.8,286046993.4,Y
1680868835.6,286046995.4,P
1680868855.4,286046996.0,P
1680868875.3,286046994.3,P
1680868895.1,286046992.6,Y
1680868915.9,286046995.3,P
1680868935.7,286046995.5,P
1680868955.5,286046995.2,P
1680868975.4,286046995.9,Y
1680868995.2,286047001.2,P
1680869015.1,286046998.3,N
1680869016.0,286046998.3,N
1680869035.8,286046999.1,N
1680869055.6,286046999.5,N
1680869075.5,286046997.1,N
1680869095.3,286046996.6,N
1680869115.1,286046997.5,N
1680869135.9,286046997.5,N
1680869155.7,286046995.1,Y
1680869175.6,286046996.6,P
1680869195.4,286046999.5,N
1680869215.2,286046999.6,N
1680869235.1,286046999.0,N
1680869236.0,286046999.0,N
1680869255.8,286046996.5,Y
1680869275.6,286047001.2,P
1680869295.5,286047000.8,N
1680869315.3,286046998.1,N
1680869335.2,286047000.4,N
1680869355.9,286046999.9,N
1680869375.7,286047000.5,N
1680869395.6,286047000.1,N
1680869415.4,286047000.5,N
1680869435.3,286047000.0,N
1680869455.1,286047000.0,N
1680869456.0,286047000.0,N
1680869475.8,286047000.1,N
1680869495.7,286047002.8,Y
1680869515.5,286047002.4,P
1680869535.3,286046999.7,N
1680869555.2,286046999.9,N
1680869575.0,286047001.9,N
1680869575.9,286047001.9,N
1680869595.8,286047002.5,N
1680869615.6,286047001.5,N
1680869635.4,286047004.4,Y
1680869655.3,286047002.2,P
1680869675.1,286047002.2,P
1680869695.8,286047002.8,P
1680869715.7,286047001.9,Y
1680869735.5,286047001.0,P
1680869755.4,286047000.5,N
1680869775.2,286047000.0,N
1680869795.0,286047002.3,N
1680869795.9,286047002.3,N
1680869815.8,286047002.8,Y
1680869835.6,286047000.5,P
1680869855.5,286047000.3,N
1680869875.3,286046999.7,N
1680869895.1,286047000.5,N
1680869915.9,286047002.4,Y
1680869935.7,286046999.7,P
1680869955.5,286047002.5,P
1680869975.4,286047002.7,N
1680869995.2,286047002.6,N
1680870015.0,286047002.5,N
1680870015.9,286047002.5,N
1680870035.8,286047001.4,N
1680870055.6,286047001.6,N
1680870075.5,286047004.2,Y
1680870095.3,286047000.1,P
1680870115.1,286047000.1,N
1680870135.9,286047002.3,N
1680870155.7,286047002.5,N
1680870175.5,286047001.5,N
1680870195.4,286047004.3,Y
1680870215.2,286047002.3,P
1680870235.1,286046999.9,N
1680870236.0,286046999.9,N
1680870255.8,286047002.8,N
1680870275.6,286047002.8,N
1680870295.5,286047002.8,N
1680870315.3,286047002.1,N
1680870335.2,286047002.2,N
1680870355.9,286047001.8,N
1680870375.7,286047001.3,N
1680870395.6,286047004.0,Y
1680870415.4,286047002.7,P
1680870435.3,286047002.6,P
1680870455.1,286047002.2,P
1680870456.0,286047002.2,Y
1680870475.8,286047000.8,P
1680870495.7,286047001.1,N
1680870515.5,286047000.3,N
1680870535.3,286047001.0,N
1680870555.2,286047000.6,N
1680870575.0,286047000.1,N
1680870575.9,286047000.1,N
1680870595.8,286046999.9,N
1680870615.6,286047002.8,Y
1680870635.4,286047000.5,P
1680870655.3,286047000.3,N
1680870675.1,286047000.8,P
1680870695.8,286047000.4,N
1680870715.7,286047000.4,N
1680870735.5,286047000.2,N
1680870755.4,286047002.4,Y
1680870775.2,286046999.8,P
1680870795.0,286047000.1,N
1680870795.9,286047000.1,N
1680870815.8,286047000.3,N
1680870835.6,286047000.4,N
1680870855.4,286046999.9,N
1680870875.3,286047000.1,N
1680870895.1,286047002.4,Y
1680870915.9,286047002.6,P
1680870935.7,286047002.7,N
1680870955.5,286047002.4,N
1680870975.4,286046999.8,N
1680870995.2,286047002.5,N
1680871015.0,286047002.2,N
1680871015.9,286047002.2,N
1680871035.8,286047002.2,N
1680871055.6,286047002.4,N
1680871075.5,286047001.6,N
1680871095.3,286047001.9,N
1680871115.1,286047002.1,N
1680871135.9,286047001.3,N
1680871155.7,286047001.3,N
1680871175.5,286047001.6,N
1680871195.4,286047001.4,N
1680871215.2,286047004.3,Y
1680871235.1,286046999.9,P
1680871236.0,286046999.9,N
1680871255.8,286047000.4,N
1680871275.6,286047000.2,N
1680871295.5,286047001.0,N
1680871315.3,286047000.9,N
1680871335.1,286047000.8,N
1680871355.9,286047001.0,N
1680871375.7,286047000.8,N
1680871395.6,286046999.9,N
1680871415.4,286047000.8,N
1680871435.2,286047000.9,N
1680871455.1,286047001.0,N
1680871456.0,286047001.0,N
1680871475.8,286047000.6,N
1680871495.6,286047001.0,N
1680871515.5,286047000.9,N
1680871535.3,286047000.4,N
1680871555.2,286047000.0,N
1680871575.9,286047000.3,N
1680871595.7,286047000.8,N
1680871615.6,286047001.0,N
1680871635.4,286047001.2,N
1680871655.2,286046998.2,Y
1680871675.1,286046999.3,P
1680871676.0,286046999.3,N
1680871695.8,286046999.6,N
1680871715.7,286046998.4,N
1680871735.5,286046998.6,N
1680871755.3,286046999.3,N
1680871775.2,286046998.4,N
1680871795.0,286046998.6,N
1680871795.9,286046998.6,N
1680871815.7,286046998.8,N
1680871835.6,286046998.9,N
1680871855.4,286046998.6,N
1680871875.3,286046999.3,N
1680871895.1,286046998.4,N
1680871896.0,286046998.4,N
1680871915.8,286046998.6,N
1680871935.7,286046998.5,N
1680871955.5,286046998.8,N
1680871975.3,286046999.2,N
1680871995.2,286046998.7,N
1680872015.0,286046999.4,N
1680872015.9,286046999.4,N
1680872035.8,286046999.1,N
1680872055.6,286046997.0,Y
1680872075.4,286047001.1,P
1680872095.3,286046998.1,N
1680872115.1,286046998.2,N
1680872135.8,286046998.1,N
1680872155.7,286046998.4,N
1680872175.5,286046998.2,N
1680872195.4,286046998.3,N
1680872215.2,286046998.6,N
1680872235.0,286046998.4,N
1680872235.9,286046998.4,N
1680872255.8,286046998.7,N
1680872275.6,286046998.8,N
1680872295.4,286046996.5,Y
1680872315.3,286047000.9,P
1680872335.1,286046998.2,N
1680872355.9,286047000.8,N
1680872375.7,286046998.6,N
1680872395.5,286047001.0,N
